Regional Weather Roundup
Issued by NWS

Home | Current Version | Previous Version | Text Only | Print | Product List | Glossary Off
Versions: 1 2 3 4 5 6 7 8 9 10 11 12 13 14 15 16 17 18 19 20 21 22 23 24 25 26 27 28 29 30 31 32 33 34 35 36 37 38 39 40 41 42 43 44 45 46 47 48 49 50

000
ASUS43 KDMX 021207
RWRIA

WEATHER ROUNDUP FOR IOWA
NATIONAL WEATHER SERVICE DES MOINES IA
700 AM CDT THU OCT 02 2014

NOTE: "FAIR" INDICATES FEW OR NO CLOUDS BELOW 12,000 FEET WITH NO
SIGNIFICANT WEATHER AND/OR OBSTRUCTIONS TO VISIBILITY.

* - THESE STATIONS ARE NOT NWS STATIONS...THUS NOT UNDER NWS
QUALITY CONTROL.  THEY ALSO DO NOT REPORT WEATHER SUCH
AS PRECIPITATION OR FOG.

IAZ001>003-012>014-020>022-031>034-043>046-021300-
   NORTHWEST IOWA

CITY           SKY/WX    TMP DP  RH WIND       PRES   REMARKS
CARROLL *      FOG       61  61 100 CALM      29.81R VSB<1/4
CHEROKEE *     DRIZZLE   59  59 100 N8        29.82R
DENISON *      FOG       63  63 100 SE5       29.81R VSB 1/4
LE MARS *      LGT RAIN  55  54  94 NW16      29.87R
ORANGE CITY *  HVY RAIN  55  52  88 NW10G25   29.85R
SHELDON *      CLOUDY    55  50  82 N8        29.81S
SIOUX CITY     LGT RAIN  55  53  93 N13       29.85R
6HR MIN TEMP:  55; 6HR MAX TEMP:  63; 6HR PCP: TRACE;

SPENCER        CLOUDY    58  56  93 NE9       29.83R
6HR MIN TEMP:  54; 6HR MAX TEMP:  59;

STORM LAKE *   FOG       61  61 100 N6        29.82S VSB 0
$$

IAZ055>058-069>071-079>083-090>094-021300-
   SOUTHWEST IOWA

CITY           SKY/WX    TMP DP  RH WIND       PRES   REMARKS
ATLANTIC *     CLOUDY    64  64 100 N5        29.81R FOG
AUDUBON *      FOG       61  55  82 CALM      29.83R VSB 1
CLARINDA *     CLOUDY    64  64 100 N7        29.79S FOG
COUNCIL BLFS * FOG       63  63 100 E7        29.78F VSB 0
CRESTON *      CLOUDY    63  63 100 E5        29.80R FOG
HARLAN  *      FOG       63  63 100 N6        29.84F VSB 1/4
LAMONI         CLOUDY    64  63  96 SE6       29.77S
6HR MIN TEMP:  64; 6HR MAX TEMP:  65;

RED OAK *      FOG       63  63 100 NE5       29.82R VSB 1
SHENANDOAH *   CLOUDY    64  64 100 N7        29.80R FOG
$$

IAZ047>049-059>061-072>074-084-021300-
   CENTRAL IOWA

CITY           SKY/WX    TMP DP  RH WIND       PRES   REMARKS
AMES           CLOUDY    63  63 100 CALM      29.80R FOG
6HR MIN TEMP:  60; 6HR MAX TEMP:  63;

ANKENY *       CLOUDY    64  64 100 SE3       29.79S FOG
CHARITON *     FOG       64  64 100 SE7       29.78S VSB 1
DES MOINES     FOG       65  64  97 SE6       29.78S VSB 1/2
6HR MIN TEMP:  63; 6HR MAX TEMP:  65; 6HR PCP:  0.01;

GRINNELL*      CLOUDY    64  62  96 SE7       29.80F FOG
KNOXVILLE *    FOG       63  63 100 VRB6      29.77F VSB 1/4
MARSHALLTOWN   FOG       62  62 100 E3        29.80S VSB 1/4
6HR MIN TEMP:  62; 6HR MAX TEMP:  64;

PELLA *        FOG       63  63  98 SE7       29.80F VSB 3/4
PERRY *        FOG       63  62  98 CALM      29.81S VSB 1/4
$$

IAZ004>006-015-016-023>025-035-036-021300-
   NORTH CENTRAL IOWA

CITY           SKY/WX    TMP DP  RH WIND       PRES   REMARKS
ALGONA *       FOG       57  57 100 NE3       29.83R VSB 0
CLARION *      CLOUDY    61  61 100 E7        29.82R
ESTHERVILLE    FOG       57  57 100 NE9       29.83R VSB 1/4
6HR MIN TEMP:  54; 6HR MAX TEMP:  58;

FORT DODGE *   CLOUDY    61  59  94 SE6       29.82R VSB 1/4
MASON CITY     FOG       56  56 100 NE5       29.84R VSB<1/4
6HR MIN TEMP:  49; 6HR MAX TEMP:  56;

FOREST CITY *  FOG       59  59 100 N3        29.83R VSB 1/4
IOWA FALLS *   FOG       63  61  94 CALM      29.83R VSB 1/2
$$

IAZ007>011-017>019-026>030-037>042-050>054-066-021300-
   NORTHEAST IOWA

CITY           SKY/WX    TMP DP  RH WIND       PRES   REMARKS
CEDAR RAPIDS   CLOUDY    64  64 100 E3        29.81S FOG
CHARLES CITY * CLOUDY    61  61 100 NE5       29.84S FOG
CLINTON *      CLOUDY    63  59  88 CALM      29.85S
DECORAH *      CLOUDY    61  61 100 CALM      29.84R FOG
MONTICELLO *   CLOUDY    64  63  94 SE5       29.82
OELWEIN *      FOG       61  61 100 CALM      29.84R VSB 0
WATERLOO       CLOUDY    63  61  93 N5        29.81S FOG
6HR MIN TEMP:  61; 6HR MAX TEMP:  63;

$$

IAZ064-065-067-068-078-021300-
   EAST CENTRAL IOWA

CITY           SKY/WX    TMP DP  RH WIND       PRES   REMARKS
IOWA CITY      PTCLDY    63  62  97 CALM      29.82F FOG
6HR MIN TEMP:  62; 6HR MAX TEMP:  66;

MT. PLEASANT * FOG       59  58  97 CALM      29.81S VSB 1/4
MUSCATINE *    CLOUDY    63  61  94 CALM      29.82F FOG
QUAD CITIES    CLOUDY    59  58  96 E3        29.82F FOG
6HR MIN TEMP:  59; 6HR MAX TEMP:  65; 6HR PCP: TRACE;

$$

IAZ062-063-075>077-085>089-095>099-021300-
   SOUTHEAST IOWA

CITY           SKY/WX    TMP DP  RH WIND       PRES   REMARKS
BURLINGTON     FOG       61  61 100 CALM      29.81S VSB 1/4
6HR MIN TEMP:  61; 6HR MAX TEMP:  66; 6HR PCP:  0.08;

FAIRFIELD *    CLOUDY    61  59  94 CALM      29.80F
FORT MADISON * FOG       63  61  94 CALM      29.82S VSB 1/4
KEOKUK *       FOG       61  61 100 E3        29.80S VSB 1/4
OSKALOOSA *    FOG       63  62  98 SE6       29.80S VSB 1/4
CENTERVILLE *  CLOUDY    64  64 100 E5        29.80S
OTTUMWA        FOG       63  62  97 SE6       29.78F VSB 1/4
6HR MIN TEMP:  62; 6HR MAX TEMP:  63;

WASHINGTON *   FOG       63  63 100 E5        29.81S VSB 1
$$

ABBREVIATIONS USED IN REMARKS
   TC - TEMPERATURES IN CELSIUS
  WCI - WIND CHILL INDEX
   HX - HEAT INDEX
  VSB - VISIBILITY
$$



USA.gov is the U.S. government's official web portal to all federal, state and local government web resources and services.